Location: Briarstone Lake
(43.1454°N, 93.2359°W)
Time: 12:24:39
(UTC+00:00)

ACS3 Solar Sail - Visible Passes

Search period start: 11 October 2024 00:00
Search period end: 21 October 2024 00:00
Orbit: 960 x 1036 km, 97.4° (Epoch: 10 October)

Date Brightness Start Highest point End Pass type
(mag) Time Alt. Az. Time Alt. Az. Time Alt. Az.
11 Oct 3.2 00:27:58 12° E 00:31:16 18° ENE 00:35:17 10° NNE visible
11 Oct 1.8 02:13:07 61° S 02:14:23 85° W 02:20:45 10° NNW visible
11 Oct 4.3 03:58:15 13° W 03:59:08 13° W 04:02:01 10° WNW visible
12 Oct 2.7 01:00:00 24° E 01:02:22 30° ENE 01:07:44 10° N visible
12 Oct 2.6 02:45:08 46° WSW 02:46:00 49° W 02:52:08 10° NNW visible
13 Oct 2.0 01:32:00 41° ESE 01:33:38 51° ENE 01:39:42 10° N visible
13 Oct 3.5 03:17:09 27° W 03:17:45 28° W 03:23:05 10° NW visible
14 Oct 3.3 00:18:51 11° E 00:22:02 16° ENE 00:25:37 10° NNE visible
14 Oct 1.7 02:04:00 65° SSE 02:05:02 87° ENE 02:11:23 10° N visible
14 Oct 4.2 03:49:09 15° W 03:49:40 15° W 03:53:12 10° NW visible
15 Oct 2.8 00:50:51 22° E 00:53:04 27° ENE 00:58:11 10° N visible
15 Oct 2.4 02:36:00 53° WSW 02:36:35 55° W 02:42:48 10° NNW visible
16 Oct 2.1 01:22:51 39° ESE 01:24:16 45° ENE 01:30:13 10° N visible
16 Oct 3.3 03:07:59 31° W 03:08:17 31° W 03:13:50 10° NNW visible
17 Oct 3.4 00:09:40 10° E 00:12:43 14° ENE 00:15:46 10° NNE visible
17 Oct 1.7 01:54:49 67° SE 01:55:37 78° ENE 02:01:55 10° N visible
17 Oct 4.1 03:39:57 17° W 03:40:09 17° W 03:44:10 10° NW visible
18 Oct 2.9 00:41:39 20° E 00:43:42 24° ENE 00:48:32 10° NNE visible
18 Oct 2.2 02:26:47 61° WSW 02:27:07 62° W 02:33:21 10° NNW visible
19 Oct 2.3 01:13:36 37° E 01:14:51 40° ENE 01:20:37 10° N visible
19 Oct 3.1 02:58:45 35° W 02:58:45 35° W 03:04:27 10° NNW visible
20 Oct 3.5 00:00:59 10° ENE 00:03:21 12° NE 00:05:42 10° NNE visible
20 Oct 1.7 01:45:33 65° ESE 01:46:08 69° ENE 01:52:22 10° N visible
20 Oct 4.0 03:30:42 20° W 03:30:42 20° W 03:34:58 10° NW visible
